Location: Glendale
(37.4556°N, 88.6714°W)
Time: 07:34:07
(UTC+00:00)

FengYun 1-2 T - Pass Details

Date: 08 December 2019
Orbit: 847 x 880 km, 98.7° (Epoch: 24 January)

Event Time Altitude Azimuth Distance (km) Brightness Sun altitude
Rises 00:16:54 0° 169° (S) 3,395 7.4 -19.4°
Reaches altitude 10° 00:19:15 10° 171° (S) 2,462 6.7 -19.8°
Maximum altitude 00:24:43 77° 257° (WSW) 872 4.3 -20.9°
Drops below altitude 10° 00:30:14 10° 344° (NNW) 2,481 6.7 -22.0°
Sets 00:32:37 0° 346° (NNW) 3,423 7.4 -22.4°
